Regional Weather Roundup
Issued by NWS

Home | Current Version | Previous Version | Graphics & Text | Print | Product List | Glossary On
Versions: 1 2 3 4 5 6 7 8 9 10 11 12 13 14 15 16 17 18 19 20 21 22 23 24 25 26 27 28 29 30 31 32 33 34 35 36 37 38 39 40 41 42 43 44 45 46 47 48 49 50
000
ASUS43 KDMX 031607
RWRIA

WEATHER ROUNDUP FOR IOWA
NATIONAL WEATHER SERVICE DES MOINES IA
1100 AM CDT FRI JUL 03 2015

NOTE: "FAIR" INDICATES FEW OR NO CLOUDS BELOW 12,000 FEET WITH NO
SIGNIFICANT WEATHER AND/OR OBSTRUCTIONS TO VISIBILITY.

* - THESE STATIONS ARE NOT NWS STATIONS...THUS NOT UNDER NWS
QUALITY CONTROL.  THEY ALSO DO NOT REPORT WEATHER SUCH
AS PRECIPITATION OR FOG.

IAZ001>003-012>014-020>022-031>034-043>046-031700-
   NORTHWEST IOWA

CITY           SKY/WX    TMP DP  RH WIND       PRES   REMARKS
CARROLL *      SUNNY     68  54  60 CALM      30.03R
CHEROKEE *     SUNNY     68  57  68 W3        30.03S
DENISON *      SUNNY     68  55  64 CALM      30.01S
LE MARS *      SUNNY     68  54  60 CALM      30.04S
ORANGE CITY *  SUNNY     66  55  68 CALM      30.04R
SHELDON *      SUNNY     68  66  94 VRB3      30.02S
SIOUX CITY     SUNNY     69  57  65 CALM      30.03S
SPENCER        SUNNY     72  55  55 W6        30.03S
STORM LAKE *   SUNNY     68  54  60 CALM      30.04S
$$

IAZ055>058-069>071-079>083-090>094-031700-
   SOUTHWEST IOWA

CITY           SKY/WX    TMP DP  RH WIND       PRES   REMARKS
ATLANTIC *     SUNNY     70  55  60 NE5       30.02S
AUDUBON *      SUNNY     70  55  60 CALM      30.04R
CLARINDA *     SUNNY     72  57  60 N7        30.03R
COUNCIL BLFS * SUNNY     70  55  60 CALM      30.03R
CRESTON *      SUNNY     70  57  64 NE8       30.02S
HARLAN  *      SUNNY     70  59  68 CALM      30.06S
LAMONI         SUNNY     71  59  65 E6        30.01R
RED OAK *      SUNNY     72  55  56 N7G13     30.02R
SHENANDOAH *   SUNNY     72  57  60 E8        30.02R
$$

IAZ047>049-059>061-072>074-084-031700-
   CENTRAL IOWA

CITY           SKY/WX    TMP DP  RH WIND       PRES   REMARKS
AMES           SUNNY     72  57  59 N6        30.01S
ANKENY *       SUNNY     72  57  60 VRB7      30.01S
CHARITON *     PTSUNNY   70  59  68 N8        30.01R
DES MOINES     MOSUNNY   73  55  53 NE9       30.00S
GRINNELL*      SUNNY     70  55  60 NE7       30.02S
KNOXVILLE *    SUNNY     70  54  56 NE8       30.00R
MARSHALLTOWN   SUNNY     71  56  58 NE7       30.00F
PELLA *        SUNNY     72  59  64 E5        30.02R
PERRY *          N/A     70  55  60 N5        30.02S
$$

IAZ004>006-015-016-023>025-035-036-031700-
   NORTH CENTRAL IOWA

CITY           SKY/WX    TMP DP  RH WIND       PRES   REMARKS
ALGONA *       SUNNY     70  55  60 VRB5      30.03S
CLARION *      SUNNY     70  55  60 N3        30.02S
ESTHERVILLE    SUNNY     70  59  68 VRB3      30.01F
FORT DODGE *   SUNNY     70  55  60 N3        30.03S
MASON CITY     SUNNY     72  57  59 N6        30.03S
FOREST CITY *  SUNNY     70  54  56 CALM      30.01S
IOWA FALLS *     N/A     70  57  64 N5        30.03S
$$

IAZ007>011-017>019-026>030-037>042-050>054-066-031700-
   NORTHEAST IOWA

CITY           SKY/WX    TMP DP  RH WIND       PRES   REMARKS
CEDAR RAPIDS   SUNNY     70  55  59 NE5       29.99S
CHARLES CITY * SUNNY     72  59  64 NW6       30.01S
CLINTON *      SUNNY     70  57  64 CALM      30.01F
DECORAH *        N/A    N/A N/A N/A MISG        N/A
DUBUQUE        SUNNY     68  54  60 NE7       30.01S
MONTICELLO *   SUNNY     70  -9   4 N6        30.00S
OELWEIN *      SUNNY     70  52  52 CALM      30.02S
WATERLOO       SUNNY     70  52  52 E5        30.00S
$$

IAZ064-065-067-068-078-031700-
   EAST CENTRAL IOWA

CITY           SKY/WX    TMP DP  RH WIND       PRES   REMARKS
DAVENPORT      SUNNY     71  58  63 NE5       29.99F
IOWA CITY      SUNNY     71  56  58 NE8       30.00S
MT. PLEASANT * SUNNY     73  54  49 N7        29.98S
MUSCATINE *    SUNNY     72  59  64 NE6       29.99S
QUAD CITIES    SUNNY     71  57  61 VRB3      29.97F
$$

IAZ062-063-075>077-085>089-095>099-031700-
   SOUTHEAST IOWA

CITY           SKY/WX    TMP DP  RH WIND       PRES   REMARKS
BURLINGTON     SUNNY     73  61  65 N8        29.97S
FAIRFIELD *    MOSUNNY   72  57  60 NE10      29.99S
FORT MADISON * SUNNY     70  61  73 NE3       29.98S
KEOKUK *       SUNNY     72  61  68 VRB7      29.96S
OSKALOOSA *      N/A     70  57  64 N5        30.00S
CENTERVILLE *  MOSUNNY   70  59  68 NE8       30.01S
OTTUMWA        MOSUNNY   71  58  63 VRB7      29.98S
WASHINGTON *   SUNNY     70  59  68 N8        30.00S
$$

ABBREVIATIONS USED IN REMARKS
   TC - TEMPERATURES IN CELSIUS
  WCI - WIND CHILL INDEX
   HX - HEAT INDEX
  VSB - VISIBILITY
$$



USA.gov is the U.S. government's official web portal to all federal, state and local government web resources and services.